This demonstration page uses our WeatherBlox Daily Observations layout. Learn more.

Left ArrowRight Arrow

Hourly Observations for September 12, 2020

Temp ( °F °C ) Dew Point ( °F °C ) Humidity (%) Winds ( mph kmh ) Pressure ( in mb ) Visibility ( mi km ) Precip ( " mm )
12:15 am 00:15 Partly Cloudy 55 13 52 11.2 89 89 S 8 13 29.95 1014 10 16 0.00 0.00
12:35 am 00:35 Mostly Cloudy 55 12.7 52 11.2 91 91 S 9 15 29.96 1014 10 16 0.00 0.00
12:55 am 00:55 Cloudy 55 12.7 52 11.3 91 91 S 8 13 29.96 1014 10 16 0.00 0.00
1:15 am 01:15 Cloudy 55 12.7 52 11.3 91 91 S 9 15 29.95 1014 10 16 0.00 0.00
1:35 am 01:35 Cloudy 55 12.7 52 11.3 91 91 S 10 17 29.96 1014 10 16 0.00 0.00
1:55 am 01:55 Cloudy 55 12.7 52 11.3 91 91 SSW 6 9 29.96 1014 10 16 0.00 0.00
2:15 am 02:15 Partly Cloudy 54 12.1 52 11 93 93 S 7 11 29.95 1014 10 16 0.00 0.00
2:35 am 02:35 Partly Cloudy 53 11.8 52 11 95 95 SSE 7 11 29.95 1014 10 16 0.00 0.00
2:55 am 02:55 Partly Cloudy 53 11.5 51 10.7 95 95 S 8 13 29.96 1014 10 16 0.00 0.00
3:15 am 03:15 Clear 52 11.1 51 10.6 97 97 S 8 13 29.95 1014 10 16 0.00 0.00
3:35 am 03:35 Clear 52 11.1 51 10.4 96 96 SSW 7 11 29.95 1014 10 16 0.00 0.00
3:55 am 03:55 Partly Cloudy 52 11.1 51 10.5 96 96 Calm 29.94 1014 10 16 0.00 0.00
4:15 am 04:15 Partly Cloudy 51 10.3 49 9.7 96 96 Calm 29.95 1014 7 11 0.00 0.00
4:35 am 04:35 Clear 49 9.6 48 9.1 97 97 NW 3 6 29.95 1014 7 11 0.00 0.00
4:55 am 04:55 Clear 48 8.7 47 8.3 97 97 NW 3 6 29.97 1015 7 11 0.00 0.00
5:15 am 05:15 Clear with Mist and Fog 48 8.9 47 8.5 97 97 Calm 29.97 1015 4 6 0.00 0.00
5:35 am 05:35 Clear 48 9 47 8.5 97 97 W 6 9 29.97 1015 10 16 0.00 0.00
5:55 am 05:55 Clear 49 9.5 48 8.7 95 95 W 7 11 29.96 1014 10 16 0.00 0.00
6:15 am 06:15 Clear 48 9.1 47 8.2 94 94 W 5 7 29.96 1015 10 16 0.00 0.00
6:35 am 06:35 Clear 47 8.3 46 7.7 96 96 WNW 5 7 29.97 1015 10 16 0.00 0.00
6:55 am 06:55 Clear 45 7.4 44 6.9 97 97 W 5 7 29.99 1015 7 11 0.00 0.00
7:15 am 07:15 Clear 45 7 44 6.6 97 97 Calm 30.00 1016 7 11 0.00 0.00
7:35 am 07:35 Sunny 46 7.9 45 7.4 97 97 WNW 6 9 29.99 1016 10 16 0.00 0.00
7:55 am 07:55 Sunny 47 8.6 46 7.5 93 93 W 5 7 29.99 1016 10 16 0.00 0.00
8:15 am 08:15 Sunny 49 9.3 46 7.9 91 91 WNW 7 11 29.99 1015 10 16 0.00 0.00
8:35 am 08:35 Sunny 50 9.8 47 8.1 89 89 NW 8 13 29.98 1015 10 16 0.00 0.00
8:55 am 08:55 Sunny 51 10.3 47 8.5 89 89 NW 8 13 29.98 1015 10 16 0.00 0.00
9:15 am 09:15 Sunny 52 11.1 48 8.9 86 86 NW 9 15 29.98 1015 10 16 0.00 0.00
9:35 am 09:35 Sunny 54 12 49 9.2 83 83 NW 9 15 29.97 1015 10 16 0.00 0.00
9:55 am 09:55 Sunny 56 13.1 49 9.7 80 80 NW 12 19 29.96 1015 10 16 0.00 0.00
10:15 am 10:15 Sunny 58 14.3 50 10.2 77 77 NW 12 19 29.96 1015 10 16 0.00 0.00
10:35 am 10:35 Sunny 59 15 51 10.3 74 74 NW 10 17 29.96 1014 10 16 0.00 0.00
10:55 am 10:55 Sunny 60 15.8 51 10.8 72 72 NW 8 13 29.95 1014 10 16 0.00 0.00
11:15 am 11:15 Sunny 63 17.1 51 10.8 67 67 NW 9 15 29.95 1014 10 16 0.00 0.00
11:35 am 11:35 Sunny 65 18.2 51 10.3 60 60 NW 14 22 29.94 1014 10 16 0.00 0.00
11:55 am 11:55 Sunny 66 19.1 51 10.3 57 57 NW 16 26 29.92 1013 10 16 0.00 0.00
12:15 pm 12:15 Sunny 67 19.6 50 9.8 53 53 NW 15 24 29.92 1013 10 16 0.00 0.00
12:35 pm 12:35 Sunny 68 20.2 49 9.5 50 50 NW 17 28 29.91 1013 10 16 0.00 0.00
12:55 pm 12:55 Sunny 69 20.4 49 9.2 49 49 NW 15 24 29.91 1013 10 16 0.00 0.00
1:15 pm 13:15 Sunny 69 20.8 49 9.5 49 49 NW 15 24 29.90 1012 10 16 0.00 0.00
1:35 pm 13:35 Sunny 71 21.5 48 8.9 45 45 NW 14 22 29.89 1012 10 16 0.00 0.00
1:55 pm 13:55 Sunny 71 21.5 46 7.5 41 41 NW 16 26 29.89 1012 10 16 0.00 0.00
2:15 pm 14:15 Sunny 72 22.1 46 7.6 39 39 NW 14 22 29.88 1012 10 16 0.00 0.00
2:35 pm 14:35 Sunny 73 22.6 45 7 37 37 NW 15 24 29.88 1012 10 16 0.00 0.00
2:55 pm 14:55 Sunny 73 22.8 45 7.2 37 37 NW 13 20 29.88 1012 10 16 0.00 0.00
3:15 pm 15:15 Sunny 73 22.9 44 6.5 35 35 NW 12 19 29.88 1012 10 16 0.00 0.00
3:35 pm 15:35 Sunny 74 23.1 45 7.1 36 36 NNW 14 22 29.88 1012 10 16 0.00 0.00
3:55 pm 15:55 Sunny 74 23.3 45 7.3 36 36 NNW 8 13 29.87 1012 10 16 0.00 0.00
4:15 pm 16:15 Sunny 75 23.8 46 7.9 36 36 NW 14 22 29.87 1012 10 16 0.00 0.00
4:35 pm 16:35 Sunny 74 23.6 47 8.1 37 37 WNW 10 17 29.87 1012 10 16 0.00 0.00
4:55 pm 16:55 Sunny 75 23.7 47 8.1 37 37 NNW 12 19 29.87 1012 10 16 0.00 0.00
5:15 pm 17:15 Sunny 74 23.6 47 8.1 37 37 NW 6 9 29.87 1012 10 16 0.00 0.00
5:35 pm 17:35 Partly Cloudy 75 24 48 8.8 38 38 N 13 20 29.88 1012 10 16 0.00 0.00
5:55 pm 17:55 Partly Cloudy 75 23.9 47 8.6 38 38 NNW 10 17 29.89 1012 10 16 0.00 0.00
6:15 pm 18:15 Sunny 74 23.6 48 9 40 40 NNW 8 13 29.89 1012 10 16 0.00 0.00
6:35 pm 18:35 Sunny 74 23.3 49 9.3 41 41 NNW 8 13 29.90 1013 10 16 0.00 0.00
6:55 pm 18:55 Sunny 73 22.5 51 10.4 46 46 NNW 6 9 29.91 1013 10 16 0.00 0.00
7:15 pm 19:15 Sunny 71 21.6 53 11.6 53 53 N 5 7 29.93 1013 10 16 0.00 0.00
7:35 pm 19:35 Sunny 68 20 54 12.2 61 61 N 5 7 29.94 1014 10 16 0.00 0.00
7:55 pm 19:55 Clear 66 18.9 55 12.5 67 67 NNE 3 6 29.95 1014 10 16 0.00 0.00
8:15 pm 20:15 Clear 65 18.3 54 12.1 67 67 Calm 29.96 1014 10 16 0.00 0.00
8:35 pm 20:35 Clear 63 17.1 54 12.4 74 74 Calm 29.98 1015 10 16 0.00 0.00
8:55 pm 20:55 Clear 62 16.6 54 12.1 75 75 SW 3 6 29.99 1016 10 16 0.00 0.00
9:15 pm 21:15 Clear 60 15.4 53 11.6 78 78 Calm 30.00 1016 10 16 0.00 0.00
9:35 pm 21:35 Clear 59 14.8 53 11.4 80 80 WSW 5 7 30.02 1017 10 16 0.00 0.00
9:55 pm 21:55 Clear 58 14.5 53 11.7 83 83 Calm 30.03 1017 10 16 0.00 0.00
10:15 pm 22:15 Clear 58 14.3 53 11.6 84 84 Calm 30.03 1017 10 16 0.00 0.00
10:35 pm 22:35 Clear 56 13.1 52 11.2 88 88 Calm 30.04 1017 10 16 0.00 0.00
10:55 pm 22:55 Clear 55 13 52 11.2 89 89 Calm 30.05 1018 10 16 0.00 0.00
11:15 pm 23:15 Clear 54 12.3 52 10.9 91 91 Calm 30.06 1018 10 16 0.00 0.00
11:35 pm 23:35 Clear 53 11.8 51 10.5 92 92 NNW 3 6 30.06 1018 10 16 0.00 0.00
11:55 pm 23:55 Clear 53 11.8 51 10.6 92 92 Calm 30.07 1018 10 16 0.00 0.00

Powered by AerisWeather